Location: Bluff Heights
(33.7692°N, 118.1592°W)
Time: 08:12:13
(UTC+00:00)

AO-73 - Pass Details

Date: 27 September 2021
Orbit: 580 x 662 km, 97.6° (Epoch: 24 October)

Event Time Altitude Azimuth Distance (km) Brightness Sun altitude
Rises 12:16:36 0° 15° (NNE) 2,843 ? -19.0°
Reaches altitude 10° 12:18:49 10° 19° (NNE) 1,927 ? -18.5°
Maximum altitude 12:22:57 63° 100° (E) 655 ? -17.7°
Drops below altitude 10° 12:27:00 10° 182° (S) 1,889 ? -16.9°
Sets 12:29:08 0° 186° (S) 2,781 ? -16.4°
